www.pogodaiklimat.ru
ПОГОДА в Аэропорту Бандаранаайк
Время
(UTC), дата
09 9.04
12 9.04
15 9.04
18 9.04
21 9.04
00 10.04
03 10.04
06 10.04
09 10.04
12 10.04
15 10.04
18 10.04
21 10.04
00 11.04
03 11.04
06 11.04
09 11.04
12 11.04
15 11.04
18 11.04
21 11.04
00 12.04
03 12.04
06 12.04
09 12.04
12 12.04
15 12.04
18 12.04
21 12.04
00 13.04
03 13.04
06 13.04
09 13.04
12 13.04
15 13.04
18 13.04
21 13.04
00 14.04
03 14.04
06 14.04
09 14.04
12 14.04
15 14.04
18 14.04
21 14.04
00 15.04
03 15.04
06 15.04
09 15.04
12 15.04
15 15.04
18 15.04
21 15.04
03 16.04
06 16.04
Ветер
(напр.,м/с)
Видим. Явления Облачность Т
(С)
Тd
(С)
f
(%)
Тe
(С)
Тes
(С)
Комфортность P
(гПа)
Po
(гПа)
Тmin
(С)
Tmax
(С)
R
(мм)
R24
(мм)
S
(см)
З 6 12 км 3/3 540 м
[Cb cap]
+32.0 +23.0 59 +42 +46 опасность
перегрева
1007.6 1006.4
З 5 10 км 1/1 600 м
[Cb cap]
+30.2 +24.5 72 +43 +43 опасность
перегрева
1006.8 1005.6 +32.0
З 4 10 км 4/4 500 м
[Cu hum]
+29.0 +25.0 79 +42 +42 опасность
перегрева
1009.5 1008.3
штиль 0 10 км 4/4 540 м
[Cu Sc]
+27.0 +25.6 92 +40 +40 очень
душно
1010.2 1009.0
штиль 0 10 км ясно +25.8 +24.6 93 +36 +36 очень
душно
1009.4 1008.2
штиль 0 9000 м 1/1 540 м
[Cu hum]
+25.0 +24.3 96 +35 +35 очень
душно
1009.8 1008.6
Ю 5 10 км 8/5 540 м
[Sc Cs]
+28.2 +24.8 82 +40 +42 очень
душно
1011.4 1010.2 +24.5
З 6 20 км 8/4 540 м
[Cu hum Cs]
+31.5 +23.5 63 +43 +47 опасность
перегрева
1011.8 1010.6
ЮЗ 9 20 км 6/3 540 м
[Cu hum Cs]
+31.6 +24.3 65 +44 +45 опасность
перегрева
1009.5 1008.3
СЗ 3 20 км 6/4 540 м
[Cu hum Cs]
+30.5 +24.1 69 +42 +43 опасность
перегрева
1009.6 1008.4 +32.1
ЮВ 2 10 км 4/4 540 м
[Cu hum]
+27.0 +22.9 78 +36 +36 очень
душно
1011.5 1010.3
штиль 0 10 км 1/1 540 м
[Cu hum]
+25.0 +23.2 90 +33 +33 очень
душно
1012.2 1011.0
В 3 10 км 4/4 1050 м
[Sc]
+24.5 +23.3 93 +33 +33 очень
душно
1011.3 1010.1
ЮВ 3 10 км 4/4 1350 м
[Sc]
+24.1 +22.5 91 +32 +32 очень
душно
1011.2 1010.0
штиль 0 20 км ясно +28.0 +23.7 77 +38 +48 очень
душно
1012.7 1011.5 +23.6
З 4 20 км 4/4 540 м
[Cu hum]
+32.2 +23.4 60 +43 +52 опасность
перегрева
1012.6 1011.3
З 7 20 км 3/3 540 м
[Cb cap]
+31.6 +24.5 66 +44 +47 опасность
перегрева
1010.2 1009.0
З 4 20 км 5/5 540 м
[Cb cap]
+30.6 +24.9 72 +44 +44 опасность
перегрева
1010.3 1009.1 +32.2
В 4 20 км зарница {гроза, ливн. дождь} 8/6 540 м
[Cb cap Ac As Cs]
+26.4 +24.4 89 +37 +37 очень
душно
1012.6 1011.4 0.3
штиль 0 20 км {гроза, ливн. дождь} 8/4 540 м
[Cb cap Ac cuf Cs]
+23.6 +23.3 98 +32 +32 очень
душно
1013.5 1012.3 26
штиль 0 10 км 8/0 2000 м
[Ac trans]
+24.0 +23.3 96 +32 +32 очень
душно
1011.6 1010.4
штиль 0 10 км 8/0 2000 м
[Ac As]
+24.2 +23.3 95 +32 +32 очень
душно
1011.3 1010.1
штиль 0 20 км 5/0
[Ac cuf Ci sp]
+27.4 +25.1 87 +39 +46 очень
душно
1013.3 1012.1 +23.4 26.0
З 1 20 км 9/5 540 м
[Cb calv Ac cuf Cs]
+31.2 +23.7 64 +42 +50 опасность
перегрева
1013.1 1011.9 26.0
З 6 20 км 6/4 540 м
[Cb cap Cs]
+32.0 +23.3 60 +43 +46 опасность
перегрева
1010.2 1009.0
Ю 4 20 км гроза без осадков 9/5 540 м
[Cb cap Ac As]
+27.8 +21.5 69 +36 +36 очень
душно
1010.7 1009.5 +32.2
ЮВ 3 10 км зарница {гроза, ливн. дождь} 4/3 540 м
[Cb cap Ci sp]
+26.0 +23.5 86 +35 +35 очень
душно
1012.4 1011.2 0.0
В 2 10 км зарница {гроза, ливн. дождь} 4/4 540 м
[Cb cap]
+25.0 +24.1 95 +34 +34 очень
душно
1013.2 1012.0 2
ЮВ 2 10 км зарница {ливн. дождь} 6/4 540 м
[Cb cap As op]
+25.0 +23.8 93 +34 +34 очень
душно
1011.7 1010.5 0.1
Ю 2 10 км 6/0
[As op Ci fib]
+25.8 +23.5 87 +35 +35 очень
душно
1011.8 1010.6
Ю 2 20 км 6/3 540 м
[Cu hum Ci fib]
+28.0 +24.9 83 +40 +45 очень
душно
1013.2 1012.0 +24.5 2.1
З 5 20 км 6/4 540 м
[Cu hum Ci fib]
+30.5 +24.5 70 +43 +49 опасность
перегрева
1013.0 1011.8 2.1
З 6 20 км 3/3 540 м
[Cb cap]
+31.5 +23.5 63 +43 +47 опасность
перегрева
1010.1 1008.9
З 3 20 км гроза без осадков 9/5 600 м
[Cb cap Ac cuf]
+30.0 +23.7 69 +41 +41 опасность
перегрева
1010.1 1008.9 +31.6
В 4 20 км зарница {гроза} 6/4 540 м
[Cb cap Cs]
+27.2 +24.0 83 +38 +38 очень
душно
1012.5 1011.3
В 5 15 км 4/3 540 м
[Cb cap Cs]
+26.2 +24.3 89 +36 +36 очень
душно
1012.6 1011.4
В 2 10 км 3/1 540 м
[Cb cap Ci fib]
+25.0 +24.1 95 +34 +34 очень
душно
1011.3 1010.1
ЮВ 4 10 км 1/0
[Ci fib]
+24.8 +23.7 94 +34 +34 очень
душно
1010.7 1009.5
ЮВ 2 20 км 1/1 540 м
[Cb cap Ci fib]
+29.0 +24.7 78 +41 +48 опасность
перегрева
1012.5 1011.3 +24.4
ЮЗ 6 20 км 4/4 540 м
[Cu hum]
+31.5 +24.1 65 +43 +49 опасность
перегрева
1012.0 1010.8
З 5 20 км 4/4 540 м
[Cb cap]
+31.8 +24.7 66 +45 +50 опасность
перегрева
1009.5 1008.3
ЮВ 15 20 км гроза без осадков 10/8 420 м
[Cb cap As trans Cs]
+29.3 +23.1 69 +39 +39 очень
душно
1010.6 1009.4 +31.8
В 5 10 км гроза, ливневой дождь 10/8 480 м
[Cb cap Ac As]
+24.5 +23.5 94 +33 +33 очень
душно
1012.7 1011.5 2
СВ 3 10 км {гроза, ливн. дождь} 9/4 540 м
[Cu hum Ac trans Cs]
+24.2 +23.5 96 +33 +33 очень
душно
1012.3 1011.1 0.0
СВ 5 10 км зарница 6/4 540 м
[Cb cap Cs]
+24.2 +23.6 96 +33 +33 очень
душно
1011.1 1009.9
С 3 10 км зарница 6/4 540 м
[Cb cap Ac trans Cs]
+24.4 +22.9 91 +32 +32 очень
душно
1011.4 1010.2
ЮВ 3 20 км 8/1 900 м
[Sc diur, vesp Ci fib]
+27.8 +24.5 82 +39 +44 очень
душно
1012.8 1011.6 +23.8 1.7
ЮЗ 8 20 км 6/4 540 м
[Cb cap Ci fib]
+31.8 +23.9 63 +43 +46 опасность
перегрева
1011.4 1010.2 0.1
З 10 20 км 5/3 540 м
[Cb cap Ci]
+31.0 +24.7 69 +44 +44 опасность
перегрева
1008.8 1007.6
З 3 20 км 5/3 540 м
[Cb cap Ci fib]
+30.3 +23.9 69 +42 +42 опасность
перегрева
1009.1 1007.9 +32.0
штиль 0 20 км зарница 4/3 540 м
[Cu hum Ci fib]
+27.7 +24.9 85 +40 +40 очень
душно
1011.8 1010.6
штиль 0 20 км 3/1 540 м
[Cu hum Ci fib]
+26.0 +24.6 92 +37 +37 очень
душно
1011.8 1010.6
штиль 0 20 км зарница 4/3 540 м
[Cb cap Cs]
+25.0 +23.8 93 +34 +34 очень
душно
1010.2 1009.0
штиль 0 20 км 6/5 500 м
[Cb cap Cs]
+29.0 +25.0 79 +42 +47 опасность
перегрева
1012.5 1011.3 +23.7
З 8 20 км 8/5 500 м
[Cb cap Cs]
+31.8 +24.4 65 +44 +46 опасность
перегрева
1011.5 1010.3
Местоположение метеостанции Аэропорт Бандаранаайк (Шри Ланка): широта 7.17 долгота 79.88 высота над уровнем моря 8 м.
В архиве по умолчанию представлена погода в Аэропорту Бандаранаайк за последнюю неделю. Архивные данные за месяц целиком и за предыдущие месяцы, начиная с января 2011 года, Вы можете получить, выбрав интересующий диапазон дат из раскрывающегося списка и нажав кнопку "Найти!".
*Определитесь, кто Вы:
Внимание! Время в таблицах - всемирное. Для получения местного времени необходимо прибавить поправку, которая равна 6 ч.
Смотрите также архив погоды в соседних городах и на ближайших метеорологических станциях:
Партнеры нашего сайта:      
Пояснения к столбцам:
  • Ветер - указаны скорость ветра в м/с - средняя за 10 мин, порывы в срок и между сроками (в фигурных скобках) и направление, откуда дует ветер: С - северный,
  • СВ - северо-восточный, В - восточный, ЮВ - юго-восточный, Ю - южный, ЮЗ - юго-западный, З - западный, СЗ - северо-западный.
  • Видимость - горизонтальная дальность видимости в метрах или километрах. При видимости от 1 до 10 км при отсутствии осадков обычно наблюдается дымка, при ухудшении видимости до 1 км и менее - туман. В сухую погоду видимость может ухудшаться дымом, пылью или мглою.
  • Явления - указаны атмосферные явления, наблюдавшиеся в срок или в последний час перед сроком; фигурными скобками обозначены явления, наблюдавшиеся между сроками (за 1-3 часа до срока); квадратными скобками обозначены град или гололедные отложения с указанием их диаметра в мм.
  • Облачность - указаны через наклонную черту общая и нижняя облачность в баллах и высота нижней границы облаков в метрах; квадратными скобками обозначены формы облаков: Ci - перистые, Cs - перисто-слоистые, Cc - перисто-кучевые, Ac - высококучевые, As - высокослоистые, Sc - слоисто-кучевые, Ns - слоисто-дождевые, Cu - кучевые, Cb - кучево-дождевые. Подробнее классификацию облаков см. в Атласе облаков (PDF).
  • T - Температура воздуха - температура, измеренная на высоте 2 м над землей.
  • Td - Температура точки росы - температура, при понижении до которой содержащийся в воздухе водяной пар достигнет насыщения.
  • f - Относительная влажность воздуха - влажноcть воздуха, измеренная на высоте 2 м над землей.
  • Te - Эффективная температура - температура, которую ощущает одетый по сезону человек в тени. Характеристика душности погоды. При расчете учитывается влияние влажности воздуха и скорости ветра на теплоощущения человека.
  • Tes - Эффективная температура на солнце - температура, которую ощущает человек, с поправкой на солнечный нагрев. Характеристика знойности погоды. Зависит от высоты солнца над горизонтом, облачности и скорости ветра. Ночью, в пасмурную погоду, а также при ветре 12 м/с и более поправка равна нулю.
  • P - Атмосферное давление - приведенное к уровню моря атмосферное давление.
  • Po - Атмосферное давление - измеренное на уровне метеостанции атмосферное давление.
  • Tmin - Минимальная температура - минимум температуры воздуха на высоте 2 м над землей.
  • Tmax - Максимальная температура - максимум температуры воздуха на высоте 2 м над землей.
  • R - Количество осадков - Количество выпавших осадков за период времени, мм. При наведении курсора мыши на число - период времени, за который выпало указанное количество осадков.
  • R24 - Количество осадков - Количество выпавших осадков за 24 часа, мм.
  • S - Снежный покров - Высота снежного покрова, см. При наведении курсора мыши на число - состояние снежного покрова и степень покрытия местности в баллах.